Regional Weather Roundup
Issued by NWS

Home | Current Version | Previous Version | Text Only | Print | Product List | Glossary Off
Versions: 1 2 3 4 5 6 7 8 9 10 11 12 13 14 15 16 17 18 19 20 21 22 23 24 25 26 27 28 29 30 31 32 33 34 35 36 37 38 39 40 41 42 43 44 45 46 47 48 49 50

000
ASUS43 KDTX 021501
RWRMI
MICHIGAN HOURLY REGIONAL WEATHER ROUNDUP
NATIONAL WEATHER SERVICE DETROIT/PONTIAC MI
1100 AM EDT THU JUL 02 2015

NOTE: "FAIR" INDICATES FEW OR NO CLOUDS BELOW 12,000 FEET WITH NO
SIGNIFICANT WEATHER AND/OR OBSTRUCTION TO VISIBILITY.

MIZ047>049-052>055-059>063-066>070-074>076-081>083-021600-
SOUTHEAST LOWER MICHIGAN

CITY           SKY/WX    TMP DP  RH WIND       PRES   REMARKS
ADRIAN         PTSUNNY   67  57  70 NE8       30.02R
ALMA           CLOUDY    64  55  74 E6        30.06R
ANN ARBOR      MOSUNNY   68  55  63 NE9       30.01S
BAD AXE        MOSUNNY   64  51  62 CALM      30.05R
CARO           PTSUNNY   66  53  64 NE3       30.04R
DETROIT CITY   SUNNY     67  54  63 N10       30.01S
DETROIT        PTSUNNY   69  54  58 NE13      30.01S
FLINT          PTSUNNY   67  53  61 VRB3      30.04R
GROSSE ILE     SUNNY     68  55  64 N9        30.00R
HILLSDALE      CLOUDY    62  58  86 NE7       30.03R
HOWELL         PTSUNNY   65  55  67 NE6       30.04R

CITY           SKY/WX    TMP DP  RH WIND       PRES   REMARKS
JACKSON        MOSUNNY   64  57  78 E7        30.03R
LAMBERTVILLE   PTSUNNY   68  56  67 SE6       30.00S
LANSING        CLOUDY    64  55  72 NE8       30.05R
LAPEER         PTSUNNY   65  50  58 CALM      30.03S
MONROE         CLOUDY    66  57  72 NE5       30.00R
MT. CLEMENS    MOSUNNY   68  52  57 NE8       29.99S
PONTIAC        PTSUNNY   65  51  60 NE7       30.01S
PORT HOPE        N/A     59  55  87 N6        30.04R
PORT HURON     SUNNY     64  55  72 N8        30.02R
TRI CITIES     PTSUNNY   68  53  58 NE7       30.06R
MIDLAND        CLOUDY    67  50  53 E5        30.05R
TROY           SUNNY     67  53  61 NE7       30.03S
SAGINAW HB     PTSUNNY   64  52  63 N5        30.04R
$$
MIZ043>046-050>051-056>058-064>065-071>073-077>080-021600-
SOUTHWEST LOWER MICHIGAN

CITY           SKY/WX    TMP DP  RH WIND       PRES   REMARKS
BATTLE CREEK   CLOUDY    64  56  75 NE6       30.04R
BENTON HARBOR  SUNNY     68  56  65 NE12      30.00F
BIG RAPIDS     SUNNY     64  47  55 CALM      30.06S
COLDWATER      PTSUNNY   64  56  75 NE7       30.01R
FREMONT        FAIR      65  52  63 E5        30.05S
HOLLAND        CLOUDY    63  56  78 E7        30.03F
GRAND RAPIDS   MOSUNNY   66  55  67 E13       30.04S
IONIA          PTSUNNY   65  57  73 NE7       30.04S
KALAMAZOO      CLOUDY    64  56  75 NE7       30.03R
LUDINGTON      SUNNY     64  51  62 E7        30.06F
MARSHALL       CLOUDY    62  56  81 NE5       30.03R
MOUNT PLEASANT PTSUNNY   65  50  58 NE5       30.06R
MUSKEGON       MOSUNNY   67  54  63 E8        30.04F
SOUTH HAVEN    MOSUNNY   62  57  82 NE8       30.01F
$$
MIZ016>042-021600-
NORTHERN LOWER MICHIGAN

CITY           SKY/WX    TMP DP  RH WIND       PRES   REMARKS
ALPENA         MOSUNNY   67  43  41 N10       30.06R
BEAVER ISLAND  SUNNY     63  47  57 NW6       30.08R
BELLAIRE       SUNNY     66  44  44 CALM      30.07R
CADILLAC       SUNNY     65  44  46 E8        30.06R
CHARLEVOIX     SUNNY     61  52  74 N6        30.10S
FRANKFORT      SUNNY     67  48  51 N3        30.07S
GAYLORD        SUNNY     64  42  44 NE8       30.07R
GRAYLING       SUNNY     66  42  42 NE8       30.07R
HARBOR SPRINGS SUNNY     60  51  72 SW7       30.07R
HOUGHTON LAKE  SUNNY     65  45  48 NE7       30.07R
MANISTEE       SUNNY     63  46  55 E5        30.08R
OSCODA         SUNNY     68  47  47 NE12      30.05R
PELLSTON       SUNNY     68  48  48 VRB7      30.07R
ROGERS CITY    SUNNY     62  52  71 N6        30.07R
TRAVERSE CITY  SUNNY     64  50  60 NE5       30.06R
$$
MIZ007>008-015-021600-
EASTERN UPPER MICHIGAN

CITY           SKY/WX    TMP DP  RH WIND       PRES   REMARKS
KINROSS        SUNNY     64  46  52 NW3       30.06S
MACKINAC ISLAN SUNNY     64  44  48 W3        30.06R
NEWBERRY       SUNNY     65  48  54 W3        30.07S
S. S. MARIE    SUNNY     65  49  56 N5        30.05S
MUNISING         N/A     66  49  54 VRB3      30.06F
$$
MIZ004>006-011>014-085-021600-
CENTRAL UPPER MICHIGAN

CITY           SKY/WX    TMP DP  RH WIND       PRES   REMARKS
MANISTIQUE     SUNNY     65  46  48 NW7       30.07F
ESCANABA       SUNNY    N/A N/A N/A NW3       30.06F
MENOMINEE      SUNNY     64  45  48 CALM      30.07F
SAWYER-GWINN   MOSUNNY   64  45  48 W12       30.07F
$$
MIZ001>003-009>011-084-021600-
WESTERN UPPER MICHIGAN

CITY           SKY/WX    TMP DP  RH WIND       PRES   REMARKS
IRON MOUNTAIN  MOSUNNY   65  45  48 VRB3      30.07F
HOUGHTON       MOSUNNY   66  51  58 SW6       30.03F
COPPER HARBOR    N/A     66  49  54 VRB6      30.01F
IRONWOOD       SUNNY     66  52  59 S6        30.01F
$$

ABBREVIATIONS USED IN REMARKS
   TC - TEMPERATURE IN CELSIUS
  WCI - WIND CHILL INDEX
   HX - HEAT INDEX
  VSB - VISIBILITY



USA.gov is the U.S. government's official web portal to all federal, state and local government web resources and services.